Regional Weather Roundup
Issued by NWS

Home | Current Version | Previous Version | Text Only | Print | Product List | Glossary On
Versions: 1 2 3 4 5 6 7 8 9 10 11 12 13 14 15 16 17 18 19 20 21 22 23 24 25 26 27 28 29 30 31 32 33 34 35 36 37 38 39 40 41 42 43 44 45 46 47 48 49 50
525
ASUS44 KLIX 291811
RWRLA
LOUISIANA WEATHER ROUNDUP
NATIONAL WEATHER SERVICE NEW ORLEANS LA
100 PM CDT FRI APR 29 2016

NOTE: "FAIR" INDICATES FEW OR NO CLOUDS BELOW 12,000 FEET WITH NO
      SIGNIFICANT WEATHER AND/OR OBSTRUCTIONS TO VISIBILITY.
      SKY/WX - SKY CONDITION AND SIGNIFICANT WEATHER.
      TMP - AIR TEMPERATURE.    DP   - DEWPOINT TEMPERATURE.
      RH  - RELATIVE HUMIDITY.  PRES - PRESSURE.
      HX  - HEAT INDEX.         WCI  - WIND CHILL INDEX.

*  THESE STATIONS ARE NOT NWS OR FAA STATIONS AND ARE NOT UNDER
   NWS QUALITY CONTROL.

LAZ040-048-061>063-065-066-069-291900-
SOUTHEAST LOUISIANA

CITY           SKY/WX    TMP DP  RH WIND       PRES   REMARKS
N.O. AUDUBON     N/A     84  73  70 MISG        N/A
6HR MIN TEMP:  73; 6HR MAX TEMP:  84;

N.O. INTL ARPT PTSUNNY   84  72  67 S18       29.89F
6HR MIN TEMP:  75; 6HR MAX TEMP:  85;

N.O. LAKEFRONT PTSUNNY   79  72  79 SE18      29.90F
6HR MIN TEMP:  70; 6HR MAX TEMP:  79;

N.O. DOWNTOWN* MOCLDY    85  72  65 S13G26    29.91F
6HR MIN TEMP:  74; 6HR MAX TEMP:  85;

RESERVE*       MOCLDY    86  72  61 S16       29.88F
6HR MIN TEMP:  75; 6HR MAX TEMP:  88;

SLIDELL        PTSUNNY   83  73  72 SE14G24   29.90F
6HR MIN TEMP:  72; 6HR MAX TEMP:  83;

BATON ROUGE    MOSUNNY   87  68  52 S21G28    29.85F
6HR MIN TEMP:  73; 6HR MAX TEMP:  88;

BOOTHVILLE     MOSUNNY   79  74  84 S15G22    29.93F
6HR MIN TEMP:  73; 6HR MAX TEMP:  80;

BELLE CHASSE   PTSUNNY   83  73  72 SE18      29.90F
6HR MIN TEMP:  74; 6HR MAX TEMP:  84;

BOGALUSA*      MOCLDY    86  68  54 S16G23    29.91F
6HR MIN TEMP:  71; 6HR MAX TEMP:  86;

GALLIANO*      CLOUDY    84  73  70 S15G25    29.90F
6HR MIN TEMP:  72; 6HR MAX TEMP:  84;

NEW ROADS*     FAIR      85  69  58 SE20      29.84F
6HR MIN TEMP:  73; 6HR MAX TEMP:  85;

GONZALES*      FAIR      85  69  59 S15G21    29.86F
6HR MIN TEMP:  73; 6HR MAX TEMP:  85;

HAMMOND*       PTSUNNY   82  70  65 S13G23    29.89F
HOUMA*         NOT AVBL
PORT FOURCHON* CLEAR     79  73  83 SE16      29.90F

$$

LAZ041-044-053-054-291900-
SOUTHWEST LOUISIANA

CITY           SKY/WX    TMP DP  RH WIND       PRES   REMARKS
LAKE CHARLES   PTSUNNY   83  71  67 S18G32    29.81F
6HR MIN TEMP:  75; 6HR MAX TEMP:  84;

LAFAYETTE      PTSUNNY   83  70  64 S20G29    29.85F
6HR MIN TEMP:  75; 6HR MAX TEMP:  84;

PATTERSON      NOT AVBL
SALT POINT       N/A     81  75  82 VRB7      29.86F
6HR MIN TEMP:  74; 6HR MAX TEMP:  81;

NEW IBERIA     LGT RAIN  82  71  69 S29G36    29.86F
6HR MIN TEMP:  74; 6HR MAX TEMP:  85; 6HR PCP: TRACE;

CHENAULT AIRPK NOT AVBL

$$

LAZ027-028-291900-
CENTRAL LOUISIANA

CITY           SKY/WX    TMP DP  RH WIND       PRES   REMARKS
FORT POLK      MOSUNNY   85  69  59 S21G32    29.78F
6HR MIN TEMP:  74; 6HR MAX TEMP:  86;

ALEXANDRIA INT SUNNY     87  66  49 S24G31    29.78F
6HR MIN TEMP:  75; 6HR MAX TEMP:  87;

ALEXANDRIA     MOSUNNY   88  69  53 S13G24    29.81F
6HR MIN TEMP:  74; 6HR MAX TEMP:  88;


$$

LAZ001-002-291900-
NORTHWEST LOUISIANA

CITY           SKY/WX    TMP DP  RH WIND       PRES   REMARKS
SHREVEPORT     CLOUDY    75  72  90 CALM      29.79S THUNDER
6HR MIN TEMP:  74; 6HR MAX TEMP:  80; 6HR PCP:  0.37;

BARKSDALE AFB  TSTM      73  73 100 N8        29.79F
6HR MIN TEMP:  73; 6HR MAX TEMP:  78; 6HR PCP:  0.17;

DTN SHREVEPORT TSTM      74  70  87 N5        29.80R
6HR MIN TEMP:  74; 6HR MAX TEMP:  79; 6HR PCP:  0.08;


$$

LAZ014-016-291900-
NORTHEAST LOUISIANA

CITY           SKY/WX    TMP DP  RH WIND       PRES   REMARKS
MONROE         TSTM      73  71  93 SE12G20   29.86F VSB 1
6HR MIN TEMP:  73; 6HR MAX TEMP:  79; 6HR PCP:  0.59;

TALLULAH       CLOUDY    80  69  69 S12       29.89R
6HR MIN TEMP:  75; 6HR MAX TEMP:  81;


$$





USA.gov is the U.S. government's official web portal to all federal, state and local government web resources and services.